APSTAR-6D

Last updated on Sun Apr 12 2026 00:02:55 GMT+0000 (Coordinated Universal Time)

1 45863U 20045A 26100.37267008 -.00000316 00000+0 00000+0 0 9998 2 45863 0.0468 98.6304 0001960 338.4597 29.6995 1.00272773 21182
UTC large
Height (km)
Speed (km/s)
/
Latitude / Longitude
Inclination (degrees)
Orbital Period (minutes)
Azimuth
Elevation
Range (km)
Doppler Factor

Next 0 passes for location: London (51.5072 / 0.1276)

Sorry there are no passes over London.
APSTAR-6D